Location: Unspecified
(0.0000°N, 0.0000°E)
Time: 08:33:47
(UTC+00:00)

Courier 1B Rocket - Pass Details

Date: 13 December 2018
Orbit: 920 x 1202 km, 28.2° (Epoch: 18 March)

Event Time Altitude Azimuth Distance (km) Brightness Sun altitude
Rises 06:18:11 0° 243° (WSW) 3,548 7.6 5.5°
Reaches altitude 10° 06:20:46 10° 245° (WSW) 2,609 6.9 6.1°
Maximum altitude 06:27:00 75° 329° (NNW) 968 5.1 7.6°
Drops below altitude 10° 06:33:30 10° 55° (NE) 2,711 7.8 9.1°
Sets 06:36:14 0° 57° (ENE) 3,697 8.5 9.7°
